#timestamp,LO_Frequency,Hit,StdDev 
1604610015.8,286047001.5,N
1604610035.7,286047004.1,N
1604610055.5,286047004.4,N
1604610075.3,286047001.4,N
1604610095.2,286047002.0,N
1604610115.0,286047001.9,N
1604610115.9,286047001.9,N
1604610135.7,286047004.2,Y
1604610155.6,286047002.6,P
1604610175.4,286047000.0,N
1604610195.3,286047000.6,N
1604610215.1,286047002.4,N
1604610216.0,286047002.4,N
1604610235.8,286047000.5,N
1604610255.7,286047001.1,N
1604610275.5,286047000.4,N
1604610295.4,286046998.5,N
1604610315.2,286047001.0,N
1604610335.0,286047000.1,N
1604610335.9,286047000.1,N
1604610355.8,286047002.4,N
1604610375.6,286047000.1,N
1604610395.4,286047000.5,N
1604610415.3,286046998.1,N
1604610435.1,286046998.8,N
1604610455.9,286046998.9,N
1604610475.7,286047000.2,N
1604610495.5,286047000.9,N
1604610515.4,286047000.6,N
1604610535.2,286047002.3,N
1604610555.0,286047000.1,N
1604610555.9,286047000.1,N
1604610575.8,286047000.3,N
1604610595.6,286047000.5,N
1604610615.5,286047001.0,N
1604610635.3,286047000.3,N
1604610655.1,286047002.1,N
1604610675.9,286046999.8,N
1604610695.7,286047002.3,N
1604610715.6,286047000.6,N
1604610735.4,286047000.6,N
1604610755.2,286047000.2,N
1604610775.1,286047000.8,N
1604610776.0,286047000.8,N
1604610795.8,286046998.6,N
1604610815.6,286047000.3,N
1604610835.5,286047000.0,N
1604610855.3,286047000.2,N
1604610875.2,286047002.8,N
1604610895.9,286047000.4,N
1604610915.7,286047000.8,N
1604610935.6,286046998.8,N
1604610955.4,286047001.0,N
1604610975.2,286047000.8,N
1604610995.1,286047004.1,Y
1604610996.0,286047004.1,P
1604611015.8,286047003.6,N
1604611035.7,286047003.1,N
1604611055.5,286047005.6,Y
1604611075.3,286047002.4,P
1604611095.2,286047000.2,N
1604611115.0,286047000.9,N
1604611115.9,286047000.9,N
1604611135.8,286046998.3,N
1604611155.6,286046998.2,N
1604611175.4,286046998.5,N
1604611195.3,286047000.7,N
1604611215.1,286047001.0,N
1604611235.9,286047000.6,N
1604611255.7,286046998.5,N
1604611275.5,286046998.8,N
1604611295.4,286047000.7,N
1604611315.2,286047001.2,N
1604611335.0,286047001.2,N
1604611335.9,286047001.2,N
1604611355.8,286046998.3,N
1604611375.6,286046996.9,N
1604611395.5,286046999.5,N
1604611415.3,286046998.3,N
1604611435.1,286046999.4,N
1604611455.9,286046999.4,N
1604611475.7,286046996.9,N
1604611495.5,286046997.1,N
1604611515.4,286046998.6,N
1604611535.2,286047000.6,N
1604611555.1,286047000.9,N
1604611556.0,286047000.9,N
1604611575.8,286046998.1,N
1604611595.6,286047000.9,N
1604611615.5,286046999.9,N
1604611635.3,286047000.9,N
1604611655.1,286047001.2,N
1604611675.9,286047000.5,N
1604611695.7,286046998.1,N
1604611715.6,286047000.8,N
1604611735.4,286046999.4,N
1604611755.2,286047000.6,N
1604611775.1,286047000.9,N
1604611776.0,286047000.9,N
1604611795.8,286046999.7,N
1604611815.7,286047002.7,N
1604611835.5,286047000.2,N
1604611855.3,286047000.6,N
1604611875.2,286046998.5,N
1604611895.0,286046998.1,N
1604611895.9,286046998.1,N
1604611915.7,286046996.9,N
1604611935.6,286047001.0,N
1604611955.4,286047001.1,N
1604611975.3,286046998.3,N
1604611995.1,286046998.3,N
1604611996.0,286046998.3,N
1604612015.8,286046998.7,N
1604612035.7,286047001.2,N
1604612055.5,286046998.1,N
1604612075.3,286047000.5,N
1604612095.2,286047000.5,N
1604612115.0,286047000.1,N
1604612115.9,286047000.1,N
1604612135.8,286047001.3,N
1604612155.6,286047002.6,N
1604612175.4,286047002.2,N
1604612195.3,286047004.0,N
1604612215.1,286047001.3,N
1604612235.9,286047004.1,N
1604612255.7,286047003.9,N
1604612275.5,286047003.9,N
1604612295.4,286047003.1,N
1604612315.2,286047003.2,N
1604612335.0,286047001.5,N
1604612335.9,286047001.5,N
1604612355.8,286047004.1,N
1604612375.6,286047004.4,N
1604612395.5,286047004.2,N
1604612415.3,286047002.3,N
1604612435.1,286047002.0,N
1604612455.9,286047002.1,N
1604612475.7,286047003.7,N
1604612495.5,286047004.1,N
1604612515.4,286047005.8,N
1604612535.2,286047004.1,N
1604612555.1,286047004.4,N
1604612556.0,286047004.4,N
1604612575.8,286047002.0,N
1604612595.6,286047002.0,N
1604612615.5,286047000.8,N
1604612635.3,286047000.0,N
1604612655.2,286047000.5,N
1604612675.9,286047002.4,N
1604612695.7,286047000.4,N
1604612715.6,286047001.5,N
1604612735.4,286047001.6,N
1604612755.2,286047001.6,N
1604612775.1,286047000.1,N
1604612776.0,286047000.1,N
1604612795.8,286047002.2,N
1604612815.7,286047000.4,N
1604612835.5,286047000.5,N
1604612855.3,286047000.7,N
1604612875.2,286047002.6,N
1604612895.0,286047004.0,N
1604612895.9,286047004.0,N
1604612915.7,286047001.4,N
1604612935.6,286047001.6,N
1604612955.4,286047002.0,N
1604612975.3,286047001.5,N
1604612995.1,286047004.1,N
1604612996.0,286047004.1,N
1604613015.8,286047004.2,N
1604613035.7,286047001.6,N
1604613055.5,286047002.8,N
1604613075.4,286047002.3,N
1604613095.2,286047000.3,N
1604613115.0,286047002.6,N
1604613115.9,286047002.6,N
1604613135.8,286047002.0,N
1604613155.6,286047000.3,N
1604613175.4,286047004.4,Y
1604613195.3,286047002.5,P
1604613215.1,286046998.2,P
1604613235.9,286046998.5,N
1604613255.7,286046999.4,N
1604613275.5,286046996.9,N
1604613295.4,286046999.2,N
1604613315.2,286046996.9,N
1604613335.1,286046999.6,N
1604613336.0,286046999.6,N
1604613355.8,286046999.1,N
1604613375.6,286046999.5,N
1604613395.5,286046996.6,N
1604613415.3,286046997.3,N
1604613435.1,286046996.7,N
1604613455.9,286046997.5,N
1604613475.7,286046995.4,N
1604613495.6,286046995.2,N
1604613515.4,286046993.8,Y
1604613535.2,286046996.2,P
1604613555.1,286046996.0,P
1604613556.0,286046996.0,P
1604613575.8,286046993.9,Y
1604613595.7,286046997.2,P
